Погода в Гуамучили

Мексика     25°27′35″N   108°04′28″W
темп.,
°C
ветер,
м/с
пор.,
м/с
влажн.,
%
обл.,
%
осадки,
мм/ч
давл.,
гПа
погр.,
м
3 марта, ср
ср323:00+16в114466 0.0 101523
02:00+15вюв114543 0.0 101523
05:00+16в123661 0.0 101423
08:00+20юв1126100 0.0 101654
11:00+30зюз221599 0.0 1016682
14:00+33юз44968 0.0 10141153
17:00+29зюз341384 0.0 1013529
20:00+18сз112878 0.0 101723
4 марта, чт
чт423:00+17в112656 0.0 101823
02:00+16св11298 0.0 101823
05:00+16всв112921 0.0 101723
08:00+20с0025100 0.0 101835
11:00+32зсз2313100 0.0 1018698
14:00+35зсз4510100 0.0 10161721
17:00+31сз5717100 0.0 10151063
20:00+20зсз2643100 0.0 1017152
5 марта, пт
пт523:00+14з016586 0.0 101723
02:00+14з1165100 0.0 101623
05:00+13сз126588 0.0 101523
08:00+19зсз114463 0.0 101575
11:00+31з231754 0.0 1013670
14:00+35з3380 0.0 10111469
17:00+32зсз55130 0.0 10101159
20:00+19сз2240100 0.0 101332
6 марта, сб
сб623:00+15зюз0157100 0.0 101423
02:00+14зюз0058100 0.0 101323
05:00+13ссв005894 0.0 101323
08:00+20сз003952 0.0 101382
11:00+31зюз211667 0.0 1012703
14:00+33зюз3313100 0.0 10101200
17:00+29зюз462183 0.0 1010667
20:00+19сз223125 0.0 101223
7 марта, вс
вс723:00+15всв004213 0.0 101323
02:00+13юв11460 0.0 101323
05:00+13в12480 0.0 101323
08:00+19вюв11360 0.0 1015110
11:00+31ююз23150 0.0 10151064
14:00+32юз54110 0.0 10131550
17:00+28юз45190 0.0 1013615
20:00+16ю11551 0.0 101623